Weather History for Columbia, MO

Change the Weather History Date:

Monday, April 8, 2013

  Actual Average Record
Temperature  
Mean Temperature 69 °F 53 °F  
Max Temperature 79 °F 64 °F 86 °F (2001)
Min Temperature 58 °F 42 °F 23 °F (2007)
Degree Days  
Heating Degree Days 0 13  
Month to date heating degree days 108 111  
Since 1 July heating degree days 4505 4693  
Cooling Degree Days 4 1  
Month to date cooling degree days 4 1  
Year to date cooling degree days 5 4  
Growing Degree Days 18 (Base 50)    
Moisture  
Dew Point 56 °F    
Average Humidity 65    
Maximum Humidity 87    
Minimum Humidity 42    
Precipitation  
Precipitation 0.05 in 0.14 in 1.17 in (1922)
Month to date precipitation 0.22 1.03  
Year to date precipitation 9.75 8.11  
Snow  
Snow 0.00 in 0.00 in 5.80 in (1938)
Month to date snowfall 0.0 0.1  
Since 1 July snowfall 35.0 17.9  
Snow Depth 0.00 in    
Sea Level Pressure  
Sea Level Pressure 29.74 in    
Wind  
Wind Speed 11 mph (South)    
Max Wind Speed 25 mph    
Max Gust Speed 30 mph    
Visibility 10 miles    
Events Rain , Thunderstorm    
T = Trace of Precipitation, MM = Missing Value Source: NWS Daily Summary

Daily Weather History Graph

Daily Weather History Graph

Search for Another Location

Airport:

Trip Planner

Search our weather history database for the weather conditions in past years. The results will help you decide how hot, cold, wet, or windy it might be!

Date:

Astronomy

Apr. 08, 2013 Rise Set
Actual Time 6:42 AM CDT 7:39 PM CDT
Civil Twilight 6:15 AM CDT 8:06 PM CDT
Nautical Twilight 5:43 AM CDT 8:38 PM CDT
Astronomical Twilight 5:09 AM CDT 9:12 PM CDT
Moon 5:31 AM CDT (4/8) 6:14 PM CDT (4/8)
Length of Visible Light 13h 51m
Length of Day
12h 56m
Waning Crescent, 3% of the Moon is Illuminated
Apr 8
Waning Crescent
Apr 10
New
Apr 18
First Quarter
Apr 25
Full
May 2
Last Quarter

Hourly Weather History & Observations

Time (CDT) Temp. Dew Point Humidity Pressure Visibility Wind Dir Wind Speed Gust Speed Precip Events Conditions
12:54 AM 62.1 °F 55.9 °F 80% 29.72 in 10.0 mi South 17.3 mph - N/A   Overcast
1:54 AM 61.0 °F 55.0 °F 81% 29.68 in 10.0 mi South 20.7 mph - N/A   Partly Cloudy
2:54 AM 61.0 °F 55.0 °F 81% 29.70 in 10.0 mi South 18.4 mph 24.2 mph N/A   Clear
3:54 AM 61.0 °F 55.0 °F 81% 29.70 in 10.0 mi South 12.7 mph - 0.00 in Rain , Thunderstorm Light Rain
4:05 AM 61.0 °F 55.9 °F 83% 29.75 in 6.0 mi West 10.4 mph - 0.01 in Rain , Thunderstorm Thunderstorms and Rain
4:19 AM 59.0 °F 55.9 °F 90% 29.73 in 9.0 mi SW 5.8 mph - 0.05 in Rain Light Rain
4:54 AM 60.1 °F 55.9 °F 86% 29.70 in 10.0 mi SSW 10.4 mph - 0.05 in   Mostly Cloudy
5:54 AM 59.0 °F 55.0 °F 87% 29.72 in 10.0 mi South 4.6 mph - N/A   Overcast
6:54 AM 59.0 °F 54.0 °F 83% 29.72 in 10.0 mi South 10.4 mph - N/A   Clear
7:54 AM 60.1 °F 55.9 °F 86% 29.74 in 10.0 mi SSW 8.1 mph - N/A   Clear
8:54 AM 63.0 °F 57.0 °F 81% 29.75 in 10.0 mi SSW 10.4 mph - N/A   Clear
9:54 AM 66.0 °F 57.0 °F 73% 29.77 in 10.0 mi SSW 15.0 mph - N/A   Mostly Cloudy
10:54 AM 69.1 °F 57.9 °F 68% 29.78 in 10.0 mi SW 11.5 mph - N/A   Mostly Cloudy
11:54 AM 69.1 °F 57.9 °F 68% 29.77 in 10.0 mi South 8.1 mph - N/A   Scattered Clouds
12:54 PM 72.0 °F 57.9 °F 61% 29.77 in 10.0 mi SSW 10.4 mph - N/A   Mostly Cloudy
1:54 PM 73.0 °F 57.9 °F 59% 29.76 in 10.0 mi Variable 4.6 mph - N/A   Scattered Clouds
2:54 PM 75.9 °F 57.0 °F 52% 29.74 in 10.0 mi Variable 4.6 mph - N/A   Mostly Cloudy
3:54 PM 78.1 °F 55.0 °F 45% 29.72 in 10.0 mi South 16.1 mph - N/A   Scattered Clouds
4:54 PM 78.1 °F 54.0 °F 43% 29.73 in 10.0 mi South 15.0 mph - N/A   Scattered Clouds
5:54 PM 75.0 °F 55.9 °F 51% 29.74 in 10.0 mi South 12.7 mph - N/A   Partly Cloudy
6:54 PM 73.0 °F 57.0 °F 57% 29.75 in 10.0 mi SE 8.1 mph - N/A   Overcast
7:54 PM 71.1 °F 57.0 °F 61% 29.75 in 10.0 mi ESE 8.1 mph - N/A   Mostly Cloudy
8:54 PM 70.0 °F 57.0 °F 63% 29.76 in 10.0 mi SE 8.1 mph - N/A   Overcast
9:54 PM 71.1 °F 57.0 °F 61% 29.79 in 10.0 mi SSE 10.4 mph - N/A   Overcast
10:54 PM 69.1 °F 59.0 °F 70% 29.81 in 10.0 mi SSE 9.2 mph - N/A   Overcast
11:54 PM 68.0 °F 59.0 °F 73% 29.81 in 10.0 mi SSE 12.7 mph - N/A   Overcast